AAL132 KIND-KDCA

Flight info

Callsign AAL132
Flight time 1h 17m
Altitude 35000
Route MAREO5 BDOCK APE J30 BUCKO FRDMM6
Aircraft B738/M-SDE2E3FGHIRWXY/LB1

Departure

Time 2026-04-23 16:06
Airport Indianapolis International Airport (KIND)

Arrival

Time 2026-04-23 17:23
Airport Ronald Reagan Washington National Airport (KDCA)
Time Latitude Longitude Altitude Speed Heading
2026-04-23 15:47 39.71690 -86.29870 784 ft 0 kts 124°
2026-04-23 15:55 39.71695 -86.29878 783 ft 4 kts 124°
2026-04-23 15:56 39.71710 -86.29907 783 ft 4 kts 124°
2026-04-23 15:56 39.71725 -86.29937 782 ft 4 kts 124°
2026-04-23 15:56 39.71731 -86.29949 782 ft 0 kts 124°
2026-04-23 15:59 39.71727 -86.29899 783 ft 17 kts 81°
2026-04-23 15:59 39.71823 -86.29822 784 ft 17 kts 30°
2026-04-23 16:00 39.71925 -86.29742 784 ft 17 kts 39°
2026-04-23 16:00 39.71967 -86.29614 785 ft 16 kts 104°
2026-04-23 16:00 39.71909 -86.29491 786 ft 16 kts 127°
2026-04-23 16:00 39.71846 -86.29379 786 ft 15 kts 111°
2026-04-23 16:01 39.71881 -86.29295 787 ft 10 kts 42°
2026-04-23 16:01 39.71891 -86.29235 788 ft 8 kts 105°
2026-04-23 16:01 39.71846 -86.29160 786 ft 12 kts 136°
2026-04-23 16:01 39.71783 -86.29077 784 ft 13 kts 134°
2026-04-23 16:02 39.71717 -86.28988 782 ft 15 kts 133°
2026-04-23 16:02 39.71637 -86.28891 780 ft 16 kts 134°
2026-04-23 16:02 39.71580 -86.28775 781 ft 12 kts 82°
2026-04-23 16:02 39.71633 -86.28693 780 ft 12 kts 42°
2026-04-23 16:03 39.71701 -86.28606 779 ft 16 kts 44°
2026-04-23 16:03 39.71794 -86.28490 779 ft 21 kts 44°
2026-04-23 16:03 39.71894 -86.28362 781 ft 20 kts 44°
2026-04-23 16:03 39.71991 -86.28238 782 ft 19 kts 44°
2026-04-23 16:04 39.72060 -86.28144 784 ft 14 kts 63°
2026-04-23 16:04 39.72052 -86.28072 783 ft 0 kts 129°
2026-04-23 16:05 39.72046 -86.28063 783 ft 8 kts 131°
2026-04-23 16:05 39.71973 -86.27982 783 ft 6 kts 173°
2026-04-23 16:05 39.71965 -86.27985 783 ft 1 kts 195°
2026-04-23 16:05 39.71958 -86.27990 784 ft 0 kts 205°
2026-04-23 16:06 39.71849 -86.28126 781 ft 58 kts 225°
2026-04-23 16:06 39.71387 -86.28707 783 ft 123 kts 225°
2026-04-23 16:06 39.70651 -86.29644 908 ft 164 kts 225°
2026-04-23 16:06 39.69919 -86.30683 1858 ft 149 kts 227°
2026-04-23 16:07 39.69210 -86.31700 2684 ft 150 kts 227°
2026-04-23 16:07 39.68277 -86.32563 3081 ft 190 kts 200°
2026-04-23 16:07 39.66877 -86.32567 3478 ft 216 kts 174°
2026-04-23 16:07 39.65320 -86.32158 3774 ft 236 kts 173°
2026-04-23 16:08 39.63711 -86.31403 4197 ft 264 kts 150°
2026-04-23 16:08 39.62442 -86.29590 4913 ft 282 kts 120°
2026-04-23 16:08 39.61934 -86.27129 5868 ft 287 kts 93°
2026-04-23 16:08 39.62222 -86.24555 6768 ft 291 kts 77°
2026-04-23 16:09 39.62773 -86.22016 7633 ft 292 kts 75°
2026-04-23 16:09 39.63378 -86.19469 8433 ft 297 kts 73°
2026-04-23 16:09 39.64055 -86.16923 9287 ft 298 kts 72°
2026-04-23 16:09 39.64743 -86.14418 10132 ft 300 kts 72°
2026-04-23 16:10 39.65459 -86.11810 10587 ft 317 kts 72°
2026-04-23 16:10 39.66222 -86.09000 10752 ft 341 kts 72°
2026-04-23 16:10 39.67027 -86.06018 11038 ft 357 kts 71°
2026-04-23 16:10 39.67857 -86.02921 11542 ft 365 kts 72°
2026-04-23 16:11 39.68691 -85.99803 12250 ft 366 kts 72°
2026-04-23 16:11 39.69525 -85.96672 12869 ft 371 kts 72°
2026-04-23 16:11 39.70372 -85.93477 13560 ft 372 kts 71°
2026-04-23 16:11 39.71218 -85.90283 14117 ft 378 kts 72°
2026-04-23 16:12 39.72064 -85.87080 14710 ft 379 kts 72°
2026-04-23 16:12 39.72920 -85.83833 15296 ft 382 kts 72°
2026-04-23 16:12 39.73782 -85.80562 15969 ft 381 kts 72°
2026-04-23 16:12 39.74641 -85.77295 16535 ft 384 kts 73°
2026-04-23 16:13 39.75507 -85.73991 17093 ft 387 kts 72°
2026-04-23 16:13 39.77262 -85.67292 18044 ft 395 kts 73°
2026-04-23 16:13 39.78149 -85.63897 18518 ft 398 kts 72°
2026-04-23 16:14 39.79040 -85.60482 18955 ft 400 kts 73°
2026-04-23 16:14 39.79941 -85.57030 19305 ft 405 kts 72°
2026-04-23 16:14 39.80848 -85.53552 19776 ft 407 kts 72°
2026-04-23 16:14 39.81763 -85.50039 20132 ft 411 kts 72°
2026-04-23 16:15 39.82668 -85.46544 20568 ft 413 kts 72°
2026-04-23 16:15 39.83591 -85.42987 20941 ft 417 kts 72°
2026-04-23 16:15 39.84516 -85.39415 21432 ft 417 kts 72°
2026-04-23 16:15 39.85449 -85.35810 21725 ft 422 kts 71°
2026-04-23 16:16 39.86386 -85.32181 22116 ft 425 kts 71°
2026-04-23 16:16 39.87331 -85.28519 22364 ft 429 kts 71°
2026-04-23 16:16 39.88203 -85.24789 22665 ft 433 kts 77°
2026-04-23 16:16 39.88616 -85.20917 23124 ft 432 kts 86°
2026-04-23 16:17 39.88818 -85.17004 23568 ft 432 kts 86°
2026-04-23 16:17 39.88998 -85.13103 23956 ft 432 kts 86°
2026-04-23 16:17 39.89180 -85.09192 24266 ft 434 kts 86°
2026-04-23 16:17 39.89373 -85.05244 24497 ft 439 kts 86°
2026-04-23 16:18 39.89575 -85.01269 24769 ft 441 kts 85°
2026-04-23 16:18 39.89784 -84.97276 25014 ft 444 kts 85°
2026-04-23 16:18 39.89996 -84.93264 25356 ft 444 kts 85°
2026-04-23 16:18 39.90209 -84.89240 25659 ft 445 kts 85°
2026-04-23 16:19 39.90423 -84.85201 25875 ft 448 kts 85°
2026-04-23 16:19 39.90636 -84.81141 26100 ft 451 kts 85°
2026-04-23 16:19 39.90848 -84.77053 26342 ft 453 kts 85°
2026-04-23 16:19 39.91060 -84.72947 26586 ft 454 kts 85°
2026-04-23 16:20 39.91271 -84.68834 26797 ft 457 kts 85°
2026-04-23 16:20 39.91481 -84.64702 27038 ft 458 kts 85°
2026-04-23 16:20 39.91690 -84.60560 27290 ft 459 kts 85°
2026-04-23 16:20 39.91896 -84.56466 27494 ft 460 kts 85°
2026-04-23 16:21 39.92103 -84.52293 27679 ft 463 kts 85°
2026-04-23 16:21 39.92310 -84.48106 27873 ft 464 kts 85°
2026-04-23 16:21 39.92516 -84.43900 28077 ft 466 kts 85°
2026-04-23 16:21 39.92722 -84.39673 28267 ft 468 kts 85°
2026-04-23 16:22 39.92927 -84.35433 28484 ft 469 kts 85°
2026-04-23 16:22 39.93131 -84.31185 28666 ft 471 kts 85°
2026-04-23 16:22 39.93334 -84.26930 28881 ft 472 kts 85°
2026-04-23 16:22 39.93561 -84.22661 29137 ft 471 kts 83°
2026-04-23 16:23 39.94019 -84.18445 29300 ft 472 kts 79°
2026-04-23 16:23 39.94398 -84.15646 29391 ft 473 kts 78°
2026-04-23 16:23 39.95018 -84.11409 29542 ft 475 kts 77°
2026-04-23 16:23 39.95651 -84.07183 29685 ft 476 kts 77°
2026-04-23 16:24 39.96278 -84.02935 29835 ft 477 kts 78°
2026-04-23 16:24 39.96888 -83.98682 29990 ft 478 kts 78°
2026-04-23 16:24 39.97485 -83.94415 30139 ft 480 kts 78°
2026-04-23 16:24 39.98073 -83.90124 30306 ft 480 kts 78°
2026-04-23 16:25 39.98653 -83.85844 30593 ft 476 kts 78°
2026-04-23 16:25 39.99218 -83.81650 30826 ft 475 kts 78°
2026-04-23 16:25 39.99788 -83.77405 30965 ft 476 kts 78°
2026-04-23 16:25 40.00357 -83.73156 31073 ft 477 kts 78°
2026-04-23 16:26 40.00927 -83.68893 31244 ft 477 kts 78°
2026-04-23 16:26 40.01494 -83.64645 31445 ft 476 kts 78°
2026-04-23 16:26 40.02059 -83.60397 31635 ft 475 kts 78°
2026-04-23 16:26 40.02623 -83.56148 31794 ft 475 kts 78°
2026-04-23 16:27 40.03187 -83.51892 31965 ft 475 kts 78°
2026-04-23 16:27 40.03746 -83.47653 32193 ft 473 kts 78°
2026-04-23 16:27 40.04305 -83.43410 32356 ft 472 kts 78°
2026-04-23 16:27 40.04860 -83.39179 32494 ft 473 kts 78°
2026-04-23 16:28 40.05414 -83.34947 32620 ft 474 kts 78°
2026-04-23 16:28 40.05967 -83.30712 32787 ft 473 kts 78°
2026-04-23 16:28 40.06517 -83.26483 32943 ft 473 kts 78°
2026-04-23 16:28 40.07062 -83.22280 33068 ft 474 kts 78°
2026-04-23 16:29 40.07611 -83.18038 33211 ft 474 kts 78°
2026-04-23 16:29 40.08157 -83.13804 33407 ft 473 kts 78°
2026-04-23 16:29 40.08702 -83.09561 33632 ft 472 kts 77°
2026-04-23 16:29 40.09244 -83.05328 33782 ft 471 kts 77°
2026-04-23 16:30 40.09784 -83.01103 33886 ft 472 kts 77°
2026-04-23 16:30 40.10325 -82.96859 34015 ft 473 kts 77°
2026-04-23 16:30 40.10863 -82.92621 34161 ft 472 kts 77°
2026-04-23 16:30 40.11399 -82.88391 34305 ft 472 kts 77°
2026-04-23 16:31 40.11926 -82.84210 34436 ft 471 kts 77°
2026-04-23 16:31 40.12459 -82.79974 34561 ft 471 kts 77°
2026-04-23 16:31 40.12989 -82.75753 34707 ft 470 kts 77°
2026-04-23 16:31 40.13517 -82.71538 34890 ft 469 kts 77°
2026-04-23 16:32 40.14042 -82.67331 35021 ft 468 kts 77°
2026-04-23 16:32 40.14484 -82.63099 35050 ft 472 kts 84°
2026-04-23 16:32 40.13849 -82.54524 35069 ft 479 kts 103°
2026-04-23 16:33 40.11547 -82.46327 35068 ft 481 kts 110°
2026-04-23 16:33 40.09038 -82.38199 35075 ft 482 kts 110°
2026-04-23 16:34 40.06574 -82.30048 35080 ft 483 kts 109°
2026-04-23 16:34 40.04153 -82.21924 35082 ft 483 kts 109°
2026-04-23 16:35 40.01714 -82.13748 35086 ft 483 kts 109°
2026-04-23 16:35 39.99266 -82.05573 35095 ft 483 kts 109°
2026-04-23 16:36 39.96815 -81.97420 35096 ft 483 kts 109°
2026-04-23 16:36 39.94358 -81.89271 35100 ft 482 kts 110°
2026-04-23 16:37 39.91883 -81.81151 35101 ft 482 kts 110°
2026-04-23 16:37 39.89420 -81.73105 35095 ft 481 kts 110°
2026-04-23 16:38 39.86941 -81.65014 35104 ft 481 kts 110°
2026-04-23 16:38 39.84463 -81.56934 35089 ft 480 kts 110°
2026-04-23 16:39 39.81988 -81.48859 35074 ft 480 kts 110°
2026-04-23 16:39 39.79510 -81.40795 35080 ft 480 kts 110°
2026-04-23 16:40 39.77026 -81.32737 35082 ft 480 kts 110°
2026-04-23 16:40 39.74535 -81.24683 35088 ft 480 kts 110°
2026-04-23 16:41 39.72058 -81.16699 35084 ft 480 kts 110°
2026-04-23 16:41 39.69558 -81.08662 35085 ft 480 kts 110°
2026-04-23 16:42 39.67050 -81.00622 35074 ft 479 kts 110°
2026-04-23 16:42 39.64541 -80.92604 35083 ft 479 kts 110°
2026-04-23 16:43 39.62024 -80.84581 35080 ft 480 kts 110°
2026-04-23 16:43 39.59518 -80.76616 35083 ft 480 kts 110°
2026-04-23 16:44 39.56989 -80.68600 35074 ft 480 kts 110°
2026-04-23 16:44 39.54456 -80.60593 35074 ft 480 kts 110°
2026-04-23 16:45 39.51918 -80.52589 35089 ft 480 kts 110°
2026-04-23 16:45 39.49374 -80.44582 35075 ft 481 kts 110°
2026-04-23 16:46 39.46821 -80.36570 35071 ft 481 kts 110°
2026-04-23 16:46 39.44262 -80.28562 35072 ft 481 kts 110°
2026-04-23 16:47 39.41700 -80.20569 35081 ft 481 kts 110°
2026-04-23 16:47 39.39148 -80.12630 35101 ft 481 kts 110°
2026-04-23 16:48 39.36564 -80.04610 34572 ft 489 kts 110°
2026-04-23 16:48 39.35255 -80.00557 33944 ft 485 kts 110°
2026-04-23 16:48 39.33958 -79.96550 33196 ft 482 kts 110°
2026-04-23 16:49 39.33087 -79.93862 32727 ft 479 kts 110°
2026-04-23 16:49 39.31393 -79.88636 31833 ft 473 kts 110°
2026-04-23 16:49 39.30136 -79.84766 31379 ft 463 kts 110°
2026-04-23 16:49 39.29187 -79.80864 31042 ft 450 kts 98°
2026-04-23 16:50 39.28809 -79.76829 30586 ft 456 kts 91°
2026-04-23 16:50 39.28564 -79.72716 30174 ft 462 kts 92°
2026-04-23 16:50 39.28284 -79.68587 29724 ft 459 kts 92°
2026-04-23 16:50 39.27976 -79.64511 29326 ft 452 kts 93°
2026-04-23 16:51 39.27651 -79.60492 28927 ft 448 kts 93°
2026-04-23 16:51 39.27324 -79.56509 28535 ft 444 kts 93°
2026-04-23 16:51 39.27005 -79.52608 28186 ft 441 kts 93°
2026-04-23 16:51 39.26686 -79.48672 27797 ft 439 kts 93°
2026-04-23 16:52 39.26368 -79.44761 27445 ft 438 kts 93°
2026-04-23 16:52 39.26050 -79.40859 27060 ft 437 kts 93°
2026-04-23 16:52 39.25731 -79.36952 26695 ft 436 kts 93°
2026-04-23 16:52 39.25411 -79.33051 26326 ft 435 kts 94°
2026-04-23 16:53 39.25092 -79.29180 25974 ft 434 kts 94°
2026-04-23 16:53 39.24772 -79.25322 25584 ft 430 kts 94°
2026-04-23 16:53 39.24455 -79.21536 25209 ft 419 kts 94°
2026-04-23 16:53 39.24141 -79.17842 24867 ft 410 kts 94°
2026-04-23 16:54 39.23835 -79.14264 24535 ft 402 kts 94°
2026-04-23 16:54 39.23528 -79.10654 24198 ft 408 kts 94°
2026-04-23 16:54 39.23216 -79.06986 23835 ft 413 kts 94°
2026-04-23 16:54 39.22902 -79.03316 23459 ft 411 kts 94°
2026-04-23 16:55 39.22587 -78.99667 23080 ft 407 kts 94°
2026-04-23 16:55 39.22274 -78.96060 22697 ft 403 kts 94°
2026-04-23 16:55 39.21943 -78.92481 22354 ft 400 kts 95°
2026-04-23 16:55 39.21598 -78.88935 22018 ft 398 kts 95°
2026-04-23 16:56 39.21251 -78.85405 21672 ft 396 kts 95°
2026-04-23 16:56 39.20908 -78.81904 21353 ft 394 kts 95°
2026-04-23 16:56 39.20566 -78.78385 21023 ft 394 kts 95°
2026-04-23 16:56 39.20225 -78.74886 20689 ft 394 kts 95°
2026-04-23 16:57 39.19882 -78.71375 20359 ft 393 kts 95°
2026-04-23 16:57 39.19544 -78.67931 20175 ft 394 kts 96°
2026-04-23 16:57 39.19187 -78.64297 19705 ft 410 kts 96°
2026-04-23 16:57 39.18826 -78.60647 19350 ft 411 kts 96°
2026-04-23 16:58 39.18470 -78.57053 19007 ft 407 kts 96°
2026-04-23 16:58 39.18112 -78.53468 18664 ft 403 kts 96°
2026-04-23 16:58 39.17754 -78.49876 18322 ft 400 kts 96°
2026-04-23 16:58 39.17401 -78.46339 17941 ft 398 kts 97°
2026-04-23 16:59 39.17049 -78.42815 17579 ft 396 kts 97°
2026-04-23 16:59 39.16695 -78.39303 17214 ft 394 kts 97°
2026-04-23 16:59 39.16305 -78.35812 16868 ft 392 kts 102°
2026-04-23 16:59 39.15591 -78.32426 16549 ft 390 kts 108°
2026-04-23 17:00 39.14719 -78.29118 16233 ft 388 kts 110°
2026-04-23 17:00 39.13831 -78.25852 15918 ft 387 kts 110°
2026-04-23 17:00 39.12959 -78.22562 15599 ft 386 kts 109°
2026-04-23 17:00 39.12119 -78.19276 15293 ft 386 kts 109°
2026-04-23 17:01 39.11305 -78.16024 14974 ft 385 kts 109°
2026-04-23 17:01 39.10489 -78.12746 14658 ft 385 kts 109°
2026-04-23 17:01 39.09668 -78.09468 14338 ft 384 kts 109°
2026-04-23 17:01 39.08838 -78.06210 14017 ft 382 kts 109°
2026-04-23 17:02 39.08277 -78.04017 13795 ft 382 kts 109°
2026-04-23 17:02 39.07179 -77.99734 13338 ft 379 kts 109°
2026-04-23 17:02 39.06356 -77.96520 13012 ft 376 kts 109°
2026-04-23 17:02 39.05540 -77.93331 12694 ft 372 kts 110°
2026-04-23 17:03 39.04739 -77.90211 12382 ft 362 kts 110°
2026-04-23 17:03 39.03961 -77.87184 12081 ft 352 kts 109°
2026-04-23 17:03 39.03202 -77.84233 11796 ft 343 kts 109°
2026-04-23 17:03 39.02459 -77.81347 11520 ft 335 kts 109°
2026-04-23 17:04 39.01735 -77.78540 11265 ft 328 kts 109°
2026-04-23 17:04 39.01022 -77.75778 11002 ft 323 kts 109°
2026-04-23 17:04 39.00316 -77.73045 10744 ft 322 kts 109°
2026-04-23 17:04 38.99608 -77.70312 10488 ft 322 kts 109°
2026-04-23 17:05 38.98911 -77.67623 10225 ft 318 kts 109°
2026-04-23 17:05 38.98203 -77.64953 9951 ft 312 kts 111°
2026-04-23 17:05 38.97364 -77.62402 9688 ft 306 kts 115°
2026-04-23 17:05 38.96472 -77.59927 9417 ft 304 kts 116°
2026-04-23 17:06 38.95585 -77.57488 9175 ft 304 kts 116°
2026-04-23 17:06 38.94697 -77.55022 8944 ft 304 kts 115°
2026-04-23 17:06 38.93817 -77.52549 8704 ft 305 kts 115°
2026-04-23 17:06 38.92938 -77.50062 8452 ft 305 kts 115°
2026-04-23 17:07 38.92061 -77.47578 8223 ft 306 kts 115°
2026-04-23 17:07 38.91180 -77.45089 7968 ft 307 kts 115°
2026-04-23 17:07 38.90207 -77.42680 7650 ft 309 kts 120°
2026-04-23 17:07 38.89135 -77.40262 7306 ft 306 kts 121°
2026-04-23 17:08 38.88092 -77.37927 6986 ft 305 kts 120°
2026-04-23 17:08 38.87047 -77.35560 6665 ft 305 kts 120°
2026-04-23 17:08 38.86004 -77.33180 6362 ft 304 kts 120°
2026-04-23 17:08 38.84970 -77.30810 6014 ft 304 kts 120°
2026-04-23 17:09 38.83935 -77.28480 5842 ft 298 kts 120°
2026-04-23 17:09 38.82907 -77.26199 5672 ft 294 kts 121°
2026-04-23 17:09 38.81884 -77.23936 5538 ft 293 kts 121°
2026-04-23 17:09 38.81206 -77.22436 5433 ft 293 kts 120°
2026-04-23 17:10 38.80189 -77.20180 5290 ft 292 kts 120°
2026-04-23 17:10 38.79174 -77.17929 5144 ft 291 kts 120°
2026-04-23 17:10 38.77829 -77.14952 4952 ft 290 kts 120°
2026-04-23 17:10 38.77123 -77.13460 4843 ft 289 kts 127°
2026-04-23 17:11 38.75628 -77.11817 4672 ft 282 kts 159°
2026-04-23 17:11 38.73810 -77.11185 4557 ft 270 kts 181°
2026-04-23 17:11 38.71943 -77.10982 4442 ft 269 kts 178°
2026-04-23 17:11 38.70088 -77.10647 4297 ft 270 kts 176°
2026-04-23 17:12 38.68250 -77.10297 4150 ft 265 kts 176°
2026-04-23 17:12 38.66416 -77.09974 3837 ft 265 kts 179°
2026-04-23 17:12 38.64581 -77.09766 3509 ft 265 kts 180°
2026-04-23 17:12 38.62741 -77.09589 3194 ft 264 kts 180°
2026-04-23 17:13 38.60905 -77.09436 2871 ft 265 kts 180°
2026-04-23 17:13 38.59075 -77.09285 2578 ft 263 kts 180°
2026-04-23 17:13 38.57282 -77.09143 2491 ft 252 kts 180°
2026-04-23 17:13 38.55591 -77.09005 2481 ft 240 kts 180°
2026-04-23 17:14 38.53980 -77.08881 2489 ft 224 kts 181°
2026-04-23 17:14 38.52488 -77.08731 2477 ft 209 kts 174°
2026-04-23 17:14 38.51236 -77.07950 2481 ft 200 kts 136°
2026-04-23 17:14 38.50622 -77.06381 2523 ft 203 kts 97°
2026-04-23 17:15 38.50869 -77.04643 2501 ft 199 kts 58°
2026-04-23 17:15 38.51834 -77.03525 2479 ft 181 kts 17°
2026-04-23 17:15 38.52981 -77.03088 2506 ft 171 kts 11°
2026-04-23 17:15 38.54108 -77.02687 2494 ft 165 kts 10°
2026-04-23 17:16 38.55185 -77.02289 2479 ft 159 kts
2026-04-23 17:16 38.56226 -77.01895 2520 ft 155 kts
2026-04-23 17:16 38.57309 -77.01527 2488 ft 160 kts
2026-04-23 17:16 38.58375 -77.01315 2492 ft 153 kts
2026-04-23 17:17 38.59422 -77.01160 2478 ft 150 kts 360°
2026-04-23 17:17 38.60460 -77.01000 2513 ft 151 kts
2026-04-23 17:17 38.61521 -77.00842 2508 ft 154 kts
2026-04-23 17:17 38.62587 -77.00688 2505 ft 153 kts 359°
2026-04-23 17:18 38.64629 -77.00950 2497 ft 146 kts 342°
2026-04-23 17:18 38.65615 -77.01201 2493 ft 146 kts 342°
2026-04-23 17:18 38.66595 -77.01454 2552 ft 147 kts 341°
2026-04-23 17:19 38.67585 -77.01718 2471 ft 141 kts 342°
2026-04-23 17:19 38.68529 -77.01960 2464 ft 137 kts 343°
2026-04-23 17:19 38.69480 -77.02138 2474 ft 139 kts 347°
2026-04-23 17:19 38.70443 -77.02269 2479 ft 139 kts 348°
2026-04-23 17:20 38.71408 -77.02379 2442 ft 139 kts 349°
2026-04-23 17:20 38.73385 -77.02584 2111 ft 142 kts 349°
2026-04-23 17:21 38.75376 -77.02786 1735 ft 147 kts 348°
2026-04-23 17:21 38.76390 -77.02889 1525 ft 145 kts 349°
2026-04-23 17:21 38.78447 -77.03088 1108 ft 156 kts 347°
2026-04-23 17:22 38.79549 -77.03290 988 ft 164 kts 350°
2026-04-23 17:22 38.81892 -77.03444 590 ft 180 kts 353°
2026-04-23 17:23 38.84414 -77.03715 26 ft 174 kts 354°
2026-04-23 17:23 38.85304 -77.03796 21 ft 77 kts 357°
2026-04-23 17:23 38.85869 -77.03874 27 ft 23 kts 327°
2026-04-23 17:24 38.85918 -77.04054 26 ft 22 kts 269°
2026-04-23 17:24 38.85898 -77.04232 27 ft 18 kts 206°
2026-04-23 17:24 38.85718 -77.04153 28 ft 9 kts 178°
2026-04-23 17:25 38.85586 -77.04088 26 ft 8 kts 163°
2026-04-23 17:25 38.85580 -77.04086 31 ft 2 kts 159°
2026-04-23 17:26 38.85508 -77.04081 24 ft 7 kts 215°
2026-04-23 17:26 38.85481 -77.04108 24 ft 0 kts 218°